Regional Weather Roundup
Issued by NWS

Home | Current Version | Previous Version | Text Only | Print | Product List | Glossary Off
Versions: 1 2 3 4 5 6 7 8 9 10 11 12 13 14 15 16 17 18 19 20 21 22 23 24 25 26 27 28 29 30 31 32 33 34 35 36 37 38 39 40 41 42 43 44 45 46 47 48 49 50

602
ASUS45 KSLC 161210
RWRUT

UTAH REGIONAL WEATHER ROUNDUP
NATIONAL WEATHER SERVICE SALT LAKE CITY UT
500 AM MST SAT DEC 16 2017

UTZ001>011-023>025-161300-

NORTHERN UTAH

CITY           SKY/WX    TMP DP  RH WIND       PRES   REMARKS
BRIGHAM CITY   CLOUDY    32  28  85 CALM      29.89F
HILL AFB       CLOUDY    31  23  71 NW8       29.85F WCI  24
LOGAN          LGT SNOW  30  27  88 S7        29.90F VSB 1   WCI  23
OGDEN          CLOUDY    31  25  78 NW5       29.86F WCI  26
SALT LAKE CITY CLOUDY    33  28  81 NW9       29.87F HAZE    WCI  25
TOOELE VALLEY  CLOUDY    28  27  93 CALM      29.90S FOG
WENDOVER       CLOUDY    30  22  72 VRB3      29.91S
HEBER CITY       N/A     25  18  74 CALM      29.79F
WEST JORDAN    CLOUDY    29  28  96 N5        29.87F WCI  24

$$

UTZ011>015-024>027-161300-

CENTRAL/NORTHEAST UTAH

CITY           SKY/WX    TMP DP  RH WIND       PRES   REMARKS
PROVO AIRPORT  CLOUDY    28  25  88 CALM      29.87R
MOAB/CANYONLAN CLOUDY    22   4  46 CALM      29.90F
DELTA          CLOUDY    23  16  74 E7        29.82F WCI  15
PRICE          CLOUDY    28  14  55 CALM      29.89F
ROOSEVELT      CLOUDY    27  18  69 CALM      29.92F
VERNAL         CLOUDY    24  15  68 CALM      29.89F

$$

UTZ013>016-019>022-027-161300-

SOUTHERN UTAH

CITY           SKY/WX    TMP DP  RH WIND       PRES   REMARKS
BRYCE CANYON   CLOUDY    19  -1  41 SW3       29.88F
CEDAR CITY     CLOUDY    28   1  31 N5        29.81F WCI  23
MILFORD        CLOUDY    37   3  24 S12       29.79F WCI  29
ST GEORGE      CLOUDY    34  12  40 CALM      29.85F
HANKSVILLE     CLOUDY    23   9  54 CALM      29.95F
BLANDING         N/A     25   6  44 NE3       29.99F

$$

REGIONAL REPORTS     COLORADO/ARIZONA

CITY           SKY/WX    TMP DP  RH WIND       PRES   REMARKS
CRAIG, CO      CLOUDY    12   6  77 SW3       29.88F
GRAND JUNCTION CLOUDY    23   8  52 CALM      29.92F
RIFLE, CO      CLOUDY    15   6  67 NE3       29.94F
MONTROSE, CO   CLOUDY    17   7  64 SE7       29.94F WCI   8
CORTEZ, CO     CLOUDY    11   1  64 SE3       29.94F
COLORADO CITY    N/A     30   1  29 CALM      29.86F
PAGE, AZ       CLOUDY    33  14  45 CALM      29.88F
GRAND CANYON   CLOUDY    19 -10  27 E5        29.91F WCI  12
KINGMAN, AZ    CLOUDY    40   3  21 E6        29.82F
FLAGSTAFF, AZ  CLOUDY    25  -3  29 CALM      29.94F

$$

REGIONAL REPORTS    NEVADA/IDAHO/WYOMING

CITY           SKY/WX    TMP DP  RH WIND       PRES   REMARKS
LAS VEGAS, NV  CLOUDY    46  19  34 SW3       29.79F
ELY, NY        CLOUDY    28   6  39 S9        29.84F WCI  19
ELKO, NV       FLURRIES  36  26  67 N10       29.92S WCI  28
POCATELLO, ID  LGT SNOW  25  23  92 SW13      29.95F FOG     WCI  14
BURLEY, ID     LGT SNOW  29  25  85 W8        29.95F FOG     WCI  21
FORT BRIDGER,  CLOUDY    35   7  31 NW10      29.87S WCI  28
EVANSTON, WY   CLOUDY    35  23  61 W10       29.83F WCI  27
ROCK SPRINGS,  CLOUDY    28   9  44 S3        29.83F

$$




USA.gov is the U.S. government's official web portal to all federal, state and local government web resources and services.